Weather History for South Haven, MI

Change the Weather History Date:

Wednesday, January 9, 2013

  Actual Average (KBIV) Record (KBIV)
Temperature  
Mean Temperature 40 °F 26 °F  
Max Temperature 45 °F 32 °F 55 °F (1965)
Min Temperature 32 °F 21 °F -11 °F (1977)
Degree Days  
Heating Degree Days 24 39  
Month to date heating degree days 342  
Since 1 July heating degree days 2610  
Cooling Degree Days 0 0  
Month to date cooling degree days 0  
Year to date cooling degree days 0  
Moisture  
Dew Point 31 °F    
Average Humidity 67    
Maximum Humidity 83    
Minimum Humidity 53    
Precipitation  
Precipitation 0.00 in 0.06 in 0.33 in (1992)
Month to date precipitation 0.63  
Year to date precipitation 0.63  
Sea Level Pressure  
Sea Level Pressure 30.19 in    
Wind  
Wind Speed 13 mph (WSW)    
Max Wind Speed 22 mph    
Max Gust Speed 30 mph    
Visibility 10 miles    
Events      
T = Trace of Precipitation, MM = Missing Value Source: NWS Daily Summary

Daily Weather History Graph

Daily Weather History Graph

Search for Another Location

Airport:

Trip Planner

Search our weather history database for the weather conditions in past years. The results will help you decide how hot, cold, wet, or windy it might be!

Date:

Astronomy

Jan. 09, 2013 Rise Set
Actual Time 8:13 AM EST 5:31 PM EST
Civil Twilight 7:42 AM EST 6:02 PM EST
Nautical Twilight 7:07 AM EST 6:37 PM EST
Astronomical Twilight 6:33 AM EST 7:11 PM EST
Moon 5:52 AM EST (1/9) 3:32 PM EST (1/9)
Length of Visible Light 10h 20m
Length of Day
9h 17m
Waning Crescent, 6% of the Moon is Illuminated
Jan 9
Waning Crescent
Jan 11
New
Jan 18
First Quarter
Jan 26
Full
Feb 3
Last Quarter

Hourly Weather History & Observations

Time (EST) Temp. Windchill Dew Point Humidity Pressure Visibility Wind Dir Wind Speed Gust Speed Precip Events Conditions
12:15 AM 36.9 °F 29.6 °F 26.6 °F 66% 30.06 in 10.0 mi SSW 10.4 mph - N/A   Clear
12:54 AM 37.8 °F 31.3 °F 28.4 °F 69% 30.05 in 10.0 mi SSW 9.2 mph - N/A   Clear
1:15 AM 38.5 °F 32.1 °F 28.8 °F 68% 30.03 in 10.0 mi SSW 9.2 mph 17.3 mph N/A   Clear
1:35 AM 39.2 °F 33.0 °F 29.1 °F 67% 30.02 in 10.0 mi SSW 9.2 mph - N/A   Clear
1:55 AM 39.2 °F 32.0 °F 29.3 °F 68% 30.02 in 10.0 mi SSW 11.5 mph - N/A   Scattered Clouds
2:15 AM 39.6 °F 33.0 °F 29.5 °F 67% 30.01 in 10.0 mi SSW 10.4 mph 17.3 mph N/A   Mostly Cloudy
2:35 AM 40.1 °F 33.6 °F 29.8 °F 67% 30.02 in 10.0 mi SSW 10.4 mph - N/A   Mostly Cloudy
2:55 AM 40.6 °F 34.3 °F 30.0 °F 66% 30.02 in 10.0 mi SSW 10.4 mph 17.3 mph N/A   Mostly Cloudy
3:15 AM 41.5 °F 34.2 °F 30.2 °F 64% 30.01 in 10.0 mi SW 13.8 mph 18.4 mph N/A   Overcast
3:35 AM 43.2 °F 35.6 °F 30.7 °F 62% 30.01 in 10.0 mi SW 16.1 mph 26.5 mph N/A   Light Drizzle
3:54 AM 43.0 °F 34.0 °F 31.3 °F 63% 30.01 in 10.0 mi SW 21.9 mph 29.9 mph N/A   Overcast
4:15 AM 41.9 °F 34.6 °F 32.9 °F 70% 30.00 in 10.0 mi SW 13.8 mph 25.3 mph N/A   Overcast
4:34 AM 42.1 °F 33.3 °F 32.9 °F 70% 30.01 in 10.0 mi SW 19.6 mph 28.8 mph N/A   Light Drizzle
4:54 AM 42.8 °F 34.5 °F 32.0 °F 66% 30.00 in 10.0 mi SW 18.4 mph 27.6 mph N/A   Mostly Cloudy
5:14 AM 42.8 °F 34.8 °F 32.0 °F 66% 30.01 in 10.0 mi SW 17.3 mph 27.6 mph N/A   Scattered Clouds
5:35 AM 42.1 °F 34.2 °F 33.1 °F 70% 30.01 in 10.0 mi SW 16.1 mph 29.9 mph N/A   Clear
5:55 AM 41.5 °F 33.5 °F 33.3 °F 72% 30.02 in 10.0 mi SW 16.1 mph 25.3 mph N/A   Clear
6:14 AM 41.2 °F 34.1 °F 33.8 °F 75% 30.02 in 10.0 mi SW 12.7 mph 25.3 mph N/A   Clear
6:35 AM 40.6 °F 33.0 °F 34.2 °F 78% 30.03 in 10.0 mi WSW 13.8 mph 25.3 mph N/A   Clear
6:55 AM 40.6 °F 33.0 °F 33.3 °F 75% 30.04 in 10.0 mi WSW 13.8 mph 25.3 mph N/A   Clear
7:15 AM 40.1 °F 31.6 °F 33.1 °F 76% 30.06 in 10.0 mi WSW 16.1 mph 24.2 mph N/A   Clear
7:34 AM 39.7 °F 31.2 °F 33.1 °F 77% 30.07 in 10.0 mi West 16.1 mph 21.9 mph N/A   Clear
7:54 AM 39.4 °F 31.8 °F 33.3 °F 79% 30.09 in 10.0 mi WSW 12.7 mph 25.3 mph N/A   Clear
8:15 AM 39.2 °F 30.8 °F 33.3 °F 79% 30.12 in 10.0 mi WSW 15.0 mph 24.2 mph N/A   Clear
8:35 AM 39.2 °F 31.2 °F 32.9 °F 78% 30.13 in 10.0 mi West 13.8 mph 25.3 mph N/A   Scattered Clouds
8:55 AM 39.2 °F 30.8 °F 32.4 °F 76% 30.14 in 10.0 mi West 15.0 mph 20.7 mph N/A   Scattered Clouds
9:15 AM 39.4 °F 31.1 °F 32.4 °F 76% 30.15 in 10.0 mi WSW 15.0 mph 20.7 mph N/A   Clear
9:35 AM 40.1 °F 32.4 °F 32.5 °F 74% 30.15 in 10.0 mi WSW 13.8 mph 19.6 mph N/A   Clear
9:55 AM 40.3 °F 34.9 °F 32.9 °F 75% 30.16 in 10.0 mi WSW 8.1 mph - N/A   Clear
10:15 AM 40.6 °F 33.0 °F 33.1 °F 74% 30.17 in 10.0 mi WSW 13.8 mph 19.6 mph N/A   Clear
10:35 AM 41.2 °F 35.5 °F 33.1 °F 73% 30.17 in 10.0 mi SW 9.2 mph 21.9 mph N/A   Clear
10:55 AM 41.2 °F 33.4 °F 33.3 °F 73% 30.18 in 10.0 mi SW 15.0 mph 23.0 mph N/A   Clear
11:09 AM 41.4 °F 33.3 °F 33.1 °F 72% 30.19 in 10.0 mi SW 16.1 mph 24.2 mph N/A   Clear
11:35 AM 41.9 °F 33.1 °F 32.9 °F 70% 30.19 in 10.0 mi WSW 19.6 mph 27.6 mph N/A   Clear
11:54 AM 41.9 °F 33.7 °F 33.3 °F 71% 30.19 in 10.0 mi WSW 17.3 mph 26.5 mph N/A   Clear
12:15 PM 42.4 °F 34.7 °F 32.4 °F 68% 30.18 in 10.0 mi WSW 16.1 mph 28.8 mph N/A   Clear
12:35 PM 42.8 °F 34.5 °F 32.4 °F 67% 30.18 in 10.0 mi WSW 18.4 mph 27.6 mph N/A   Clear
12:55 PM 43.3 °F 35.2 °F 32.7 °F 66% 30.19 in 10.0 mi WSW 18.4 mph 26.5 mph N/A   Clear
1:15 PM 43.7 °F 36.0 °F 32.5 °F 65% 30.19 in 10.0 mi WSW 17.3 mph 24.2 mph N/A   Clear
1:34 PM 44.1 °F 35.9 °F 32.4 °F 63% 30.20 in 10.0 mi WSW 19.6 mph 28.8 mph N/A   Clear
1:55 PM 44.6 °F 36.1 °F 32.5 °F 63% 30.21 in 10.0 mi WSW 21.9 mph 25.3 mph N/A   Clear
2:14 PM 44.8 °F 37.4 °F 32.5 °F 62% 30.23 in 10.0 mi WSW 17.3 mph 26.5 mph N/A   Clear
2:35 PM 45.5 °F 39.2 °F 32.0 °F 59% 30.23 in 10.0 mi WSW 13.8 mph 23.0 mph N/A   Clear
2:54 PM 45.7 °F 39.1 °F 31.6 °F 58% 30.24 in 10.0 mi West 15.0 mph 25.3 mph N/A   Clear
3:15 PM 45.5 °F 39.9 °F 30.7 °F 56% 30.26 in 10.0 mi West 11.5 mph 18.4 mph N/A   Clear
3:35 PM 45.1 °F 38.4 °F 29.5 °F 54% 30.26 in 10.0 mi West 15.0 mph 18.4 mph N/A   Clear
3:55 PM 44.6 °F 38.1 °F 28.4 °F 53% 30.28 in 10.0 mi West 13.8 mph 25.3 mph N/A   Clear
4:15 PM 43.7 °F 36.9 °F 28.4 °F 55% 30.30 in 10.0 mi West 13.8 mph 23.0 mph N/A   Clear
4:35 PM 43.2 °F 36.6 °F 29.3 °F 58% 30.30 in 10.0 mi West 12.7 mph 21.9 mph N/A   Clear
4:54 PM 42.6 °F 35.6 °F 30.2 °F 61% 30.32 in 10.0 mi West 13.8 mph 19.6 mph N/A   Clear
5:15 PM 42.3 °F 34.1 °F 28.9 °F 59% 30.32 in 10.0 mi West 17.3 mph 21.9 mph N/A   Clear
5:34 PM 41.4 °F 34.0 °F 28.2 °F 60% 30.33 in 10.0 mi West 13.8 mph 21.9 mph N/A   Clear
5:55 PM 41.0 °F 33.1 °F 28.4 °F 61% 30.35 in 10.0 mi West 15.0 mph 20.7 mph N/A   Clear
6:15 PM 41.0 °F 32.5 °F 27.1 °F 58% 30.36 in 10.0 mi West 17.3 mph 21.9 mph N/A   Clear
6:35 PM 40.5 °F 32.1 °F 27.7 °F 60% 30.37 in 10.0 mi West 16.1 mph 21.9 mph N/A   Clear
7:15 PM 39.4 °F 31.4 °F 27.9 °F 63% 30.39 in 10.0 mi WNW 13.8 mph 26.5 mph N/A   Clear
7:34 PM 39.4 °F 31.1 °F 27.1 °F 62% 30.40 in 10.0 mi WNW 15.0 mph 20.7 mph N/A   Clear
7:55 PM 39.2 °F 31.2 °F 27.7 °F 63% 30.41 in 10.0 mi WNW 13.8 mph 20.7 mph N/A   Clear
8:35 PM 38.8 °F 31.2 °F 28.0 °F 65% 30.41 in 10.0 mi WNW 12.7 mph 18.4 mph N/A   Clear
9:15 PM 38.5 °F 31.6 °F 28.4 °F 67% 30.42 in 10.0 mi WNW 10.4 mph - N/A   Clear
9:34 PM 38.3 °F 31.4 °F 28.2 °F 67% 30.41 in 10.0 mi NW 10.4 mph 17.3 mph N/A   Clear
9:55 PM 37.9 °F 30.9 °F 28.4 °F 69% 30.41 in 10.0 mi NW 10.4 mph - N/A   Clear
10:15 PM 37.9 °F 31.5 °F 28.2 °F 68% 30.41 in 10.0 mi NNW 9.2 mph 18.4 mph N/A   Clear
10:34 PM 37.6 °F 31.6 °F 28.8 °F 70% 30.41 in 10.0 mi NNW 8.1 mph - N/A   Clear
10:55 PM 37.4 °F 32.8 °F 28.2 °F 69% 30.42 in 10.0 mi NNW 5.8 mph - N/A   Clear
11:14 PM 37.0 °F 33.3 °F 28.2 °F 70% 30.42 in 10.0 mi North 4.6 mph - N/A   Clear
11:35 PM 37.0 °F - 28.4 °F 71% 30.43 in 10.0 mi Calm Calm - N/A   Clear
11:55 PM 32.2 °F - 27.5 °F 83% 30.44 in 10.0 mi Calm Calm - N/A   Clear